Time,TemperatureF,DewpointF,PressureIn,WindDirection,WindDirectionDegrees,WindSpeedMPH,WindSpeedGustMPH,Humidity,HourlyPrecipIn,Conditions,Clouds,dailyrainin,SoftwareType,DateUTC
2013-02-09 00:11:00,21.3,20.0,29.86,North,360,14.0,22.0,95,0.00,,,0.00,weatherlink.com 1.10,2013-02-09 05:11:00,
2013-02-09 00:26:00,21.0,20.0,29.87,North,360,16.0,20.0,95,0.00,,,0.00,weatherlink.com 1.10,2013-02-09 05:26:00,
2013-02-09 00:42:00,20.3,19.0,29.88,NNW,348,10.0,27.0,95,0.00,,,0.00,weatherlink.com 1.10,2013-02-09 05:42:00,
2013-02-09 00:57:00,20.0,19.0,29.90,North,355,14.0,22.0,94,0.00,,,0.00,weatherlink.com 1.10,2013-02-09 05:57:00,
2013-02-09 01:13:00,19.4,18.0,29.91,NE,38,23.0,23.0,94,0.00,,,0.00,weatherlink.com 1.10,2013-02-09 06:13:00,
2013-02-09 01:26:00,19.1,18.0,29.91,North,355,16.0,23.0,94,0.00,,,0.00,weatherlink.com 1.10,2013-02-09 06:26:00,
2013-02-09 01:41:00,18.8,17.0,29.93,North,9,18.0,26.0,94,0.00,,,0.00,weatherlink.com 1.10,2013-02-09 06:41:00,
2013-02-09 06:48:00,15.9,14.0,30.11,NNE,28,8.0,16.0,93,0.00,,,0.00,weatherlink.com 1.10,2013-02-09 11:48:00,
2013-02-09 06:58:00,16.1,15.0,30.11,North,5,12.0,16.0,93,0.00,,,0.00,weatherlink.com 1.10,2013-02-09 11:58:00,
2013-02-09 07:13:00,16.7,15.0,30.12,North,355,16.0,21.0,93,0.00,,,0.00,weatherlink.com 1.10,2013-02-09 12:13:00,
2013-02-09 07:28:00,16.7,15.0,30.13,North,355,9.0,20.0,93,0.00,,,0.00,weatherlink.com 1.10,2013-02-09 12:28:00,
2013-02-09 07:43:00,16.4,15.0,30.14,NNE,15,12.0,20.0,93,0.00,,,0.00,weatherlink.com 1.10,2013-02-09 12:43:00,
2013-02-09 07:58:00,16.3,15.0,30.15,NNW,344,11.0,21.0,93,0.00,,,0.00,weatherlink.com 1.10,2013-02-09 12:58:00,
2013-02-09 08:13:00,16.1,15.0,30.15,North,355,12.0,20.0,93,0.00,,,0.00,weatherlink.com 1.10,2013-02-09 13:13:00,
2013-02-09 08:28:00,16.2,15.0,30.16,North,5,12.0,24.0,93,0.00,,,0.00,weatherlink.com 1.10,2013-02-09 13:28:00,
2013-02-09 08:43:00,16.2,15.0,30.17,North,360,12.0,24.0,93,0.00,,,0.00,weatherlink.com 1.10,2013-02-09 13:43:00,
2013-02-09 08:58:00,16.1,15.0,30.18,North,11,14.0,21.0,93,0.00,,,0.00,weatherlink.com 1.10,2013-02-09 13:58:00,
2013-02-09 09:13:00,16.2,15.0,30.19,NNE,17,13.0,23.0,93,0.00,,,0.00,weatherlink.com 1.10,2013-02-09 14:13:00,
2013-02-09 09:28:00,16.2,15.0,30.19,North,351,10.0,19.0,93,0.00,,,0.00,weatherlink.com 1.10,2013-02-09 14:28:00,
2013-02-09 09:43:00,16.3,15.0,30.20,North,360,10.0,19.0,93,0.00,,,0.00,weatherlink.com 1.10,2013-02-09 14:43:00,
2013-02-09 09:58:00,16.4,15.0,30.20,North,355,9.0,18.0,93,0.00,,,0.00,weatherlink.com 1.10,2013-02-09 14:58:00,
2013-02-09 10:13:00,16.4,15.0,30.20,NNE,17,10.0,20.0,93,0.00,,,0.00,weatherlink.com 1.10,2013-02-09 15:13:00,
2013-02-09 10:28:00,16.6,15.0,30.21,North,360,14.0,20.0,92,0.00,,,0.00,weatherlink.com 1.10,2013-02-09 15:28:00,
2013-02-09 10:43:00,16.9,15.0,30.22,North,5,12.0,18.0,92,0.00,,,0.00,weatherlink.com 1.10,2013-02-09 15:43:00,
2013-02-09 10:58:00,16.9,15.0,30.22,NNE,19,12.0,19.0,92,0.00,,,0.00,weatherlink.com 1.10,2013-02-09 15:58:00,
2013-02-09 11:13:00,17.0,15.0,30.22,NNW,347,10.0,22.0,92,0.00,,,0.00,weatherlink.com 1.10,2013-02-09 16:13:00,
2013-02-09 11:28:00,17.1,15.0,30.22,North,5,12.0,18.0,92,0.00,,,0.00,weatherlink.com 1.10,2013-02-09 16:28:00,
2013-02-09 11:43:00,17.2,15.0,30.23,ENE,73,9.0,23.0,91,0.00,,,0.00,weatherlink.com 1.10,2013-02-09 16:43:00,
2013-02-09 11:58:00,17.3,15.0,30.23,North,10,14.0,20.0,92,0.00,,,0.00,weatherlink.com 1.10,2013-02-09 16:58:00,
2013-02-09 12:13:00,17.5,16.0,30.23,NNE,26,13.0,19.0,92,0.00,,,0.00,weatherlink.com 1.10,2013-02-09 17:13:00,
2013-02-09 12:28:00,17.4,16.0,30.23,North,360,11.0,18.0,92,0.00,,,0.00,weatherlink.com 1.10,2013-02-09 17:28:00,
2013-02-09 12:43:00,17.6,16.0,30.24,NNE,28,9.0,18.0,92,0.00,,,0.00,weatherlink.com 1.10,2013-02-09 17:43:00,
2013-02-09 12:58:00,17.6,16.0,30.24,North,355,10.0,20.0,92,0.00,,,0.00,weatherlink.com 1.10,2013-02-09 17:58:00,
2013-02-09 13:13:00,17.9,16.0,30.23,North,5,14.0,18.0,91,0.00,,,0.00,weatherlink.com 1.10,2013-02-09 18:13:00,
2013-02-09 13:29:00,17.8,16.0,30.23,North,11,13.0,18.0,91,0.00,,,0.00,weatherlink.com 1.10,2013-02-09 18:29:00,
2013-02-09 13:44:00,18.0,16.0,30.24,NNE,25,10.0,18.0,92,0.00,,,0.00,weatherlink.com 1.10,2013-02-09 18:44:00,
2013-02-09 13:59:00,18.1,16.0,30.25,NE,40,10.0,15.0,92,0.00,,,0.00,weatherlink.com 1.10,2013-02-09 18:59:00,
2013-02-09 14:14:00,18.2,16.0,30.25,North,9,10.0,18.0,92,0.00,,,0.00,weatherlink.com 1.10,2013-02-09 19:14:00,
2013-02-09 14:29:00,18.4,16.0,30.25,NNE,19,10.0,15.0,91,0.00,,,0.00,weatherlink.com 1.10,2013-02-09 19:29:00,
2013-02-09 14:44:00,18.5,17.0,30.25,North,355,10.0,15.0,92,0.00,,,0.00,weatherlink.com 1.10,2013-02-09 19:44:00,
2013-02-09 14:59:00,18.7,17.0,30.25,NNE,22,12.0,15.0,91,0.00,,,0.00,weatherlink.com 1.10,2013-02-09 19:59:00,
2013-02-09 15:14:00,18.9,17.0,30.25,NNE,13,9.0,16.0,91,0.00,,,0.00,weatherlink.com 1.10,2013-02-09 20:14:00,
2013-02-09 15:29:00,18.9,17.0,30.26,NNW,336,18.0,18.0,91,0.00,,,0.00,weatherlink.com 1.10,2013-02-09 20:29:00,
2013-02-09 15:44:00,19.1,17.0,30.26,North,355,11.0,14.0,91,0.00,,,0.00,weatherlink.com 1.10,2013-02-09 20:44:00,
2013-02-09 15:59:00,19.3,17.0,30.26,NW,312,9.0,14.0,91,0.00,,,0.00,weatherlink.com 1.10,2013-02-09 20:59:00,
2013-02-09 16:14:00,19.4,17.0,30.27,NW,313,6.0,15.0,91,0.00,,,0.00,weatherlink.com 1.10,2013-02-09 21:14:00,
2013-02-09 16:29:00,19.3,17.0,30.27,NNE,20,10.0,13.0,91,0.00,,,0.00,weatherlink.com 1.10,2013-02-09 21:29:00,
2013-02-09 16:44:00,19.3,17.0,30.27,NNW,336,7.0,11.0,91,0.00,,,0.00,weatherlink.com 1.10,2013-02-09 21:44:00,
2013-02-09 16:59:00,19.3,17.0,30.28,North,5,8.0,14.0,91,0.00,,,0.00,weatherlink.com 1.10,2013-02-09 21:59:00,
2013-02-09 17:14:00,19.3,17.0,30.28,NNW,336,7.0,14.0,91,0.00,,,0.00,weatherlink.com 1.10,2013-02-09 22:14:00,
2013-02-09 17:29:00,19.1,17.0,30.28,NNW,337,8.0,11.0,90,0.00,,,0.00,weatherlink.com 1.10,2013-02-09 22:29:00,
2013-02-09 17:44:00,19.0,17.0,30.28,North,360,4.0,14.0,90,0.00,,,0.00,weatherlink.com 1.10,2013-02-09 22:44:00,
2013-02-09 17:59:00,18.9,17.0,30.28,NNW,334,8.0,11.0,90,0.00,,,0.00,weatherlink.com 1.10,2013-02-09 22:59:00,
2013-02-09 18:14:00,18.7,16.0,30.28,NW,305,6.0,11.0,90,0.00,,,0.00,weatherlink.com 1.10,2013-02-09 23:14:00,
2013-02-09 18:29:00,18.6,16.0,30.29,NW,318,4.0,10.0,90,0.00,,,0.00,weatherlink.com 1.10,2013-02-09 23:29:00,
2013-02-09 18:44:00,18.5,16.0,30.30,NNW,327,2.0,11.0,89,0.00,,,0.00,weatherlink.com 1.10,2013-02-09 23:44:00,
2013-02-09 18:59:00,18.5,16.0,30.30,North,360,7.0,10.0,88,0.00,,,0.00,weatherlink.com 1.10,2013-02-09 23:59:00,
2013-02-09 19:14:00,18.8,16.0,30.31,North,5,5.0,10.0,90,0.00,,,0.00,weatherlink.com 1.10,2013-02-10 00:14:00,
2013-02-09 19:29:00,18.7,16.0,30.32,WNW,286,10.0,12.0,89,0.00,,,0.00,weatherlink.com 1.10,2013-02-10 00:29:00,
2013-02-09 19:44:00,18.5,16.0,30.32,NW,304,6.0,10.0,89,0.00,,,0.00,weatherlink.com 1.10,2013-02-10 00:44:00,
2013-02-09 19:59:00,18.2,16.0,30.32,North,360,4.0,11.0,89,0.00,,,0.00,weatherlink.com 1.10,2013-02-10 00:59:00,
2013-02-09 20:14:00,17.9,15.0,30.32,NNE,19,4.0,10.0,89,0.00,,,0.00,weatherlink.com 1.10,2013-02-10 01:14:00,
2013-02-09 20:29:00,17.7,15.0,30.32,North,355,4.0,8.0,90,0.00,,,0.00,weatherlink.com 1.10,2013-02-10 01:29:00,
2013-02-09 20:44:00,17.3,15.0,30.32,North,355,3.0,9.0,91,0.00,,,0.00,weatherlink.com 1.10,2013-02-10 01:44:00,
2013-02-09 20:59:00,17.2,15.0,30.32,NW,316,2.0,6.0,91,0.00,,,0.00,weatherlink.com 1.10,2013-02-10 01:59:00,
2013-02-09 21:14:00,17.1,15.0,30.32,North,9,4.0,6.0,91,0.00,,,0.00,weatherlink.com 1.10,2013-02-10 02:14:00,
2013-02-09 21:29:00,16.7,15.0,30.32,North,351,2.0,6.0,91,0.00,,,0.00,weatherlink.com 1.10,2013-02-10 02:29:00,
2013-02-09 21:44:00,16.1,14.0,30.32,NNE,13,2.0,4.0,91,0.00,,,0.00,weatherlink.com 1.10,2013-02-10 02:44:00,
2013-02-09 21:59:00,15.1,13.0,30.33,NNE,14,1.0,2.0,91,0.00,,,0.00,weatherlink.com 1.10,2013-02-10 02:59:00,
2013-02-09 22:14:00,14.4,13.0,30.33,NNE,15,0.0,2.0,92,0.00,,,0.00,weatherlink.com 1.10,2013-02-10 03:14:00,
2013-02-09 22:29:00,13.9,12.0,30.33,NNE,15,0.0,0.0,92,0.00,,,0.00,weatherlink.com 1.10,2013-02-10 03:29:00,
2013-02-09 22:44:00,13.7,12.0,30.33,NNE,15,0.0,0.0,92,0.00,,,0.00,weatherlink.com 1.10,2013-02-10 03:44:00,
2013-02-09 22:59:00,13.7,12.0,30.33,ENE,62,0.0,0.0,93,0.00,,,0.00,weatherlink.com 1.10,2013-02-10 03:59:00,
2013-02-09 23:14:00,13.9,12.0,30.33,ENE,72,1.0,2.0,93,0.00,,,0.00,weatherlink.com 1.10,2013-02-10 04:14:00,
2013-02-09 23:29:00,13.5,12.0,30.34,ENE,74,1.0,2.0,92,0.00,,,0.00,weatherlink.com 1.10,2013-02-10 04:29:00,
2013-02-09 23:45:00,12.7,11.0,30.34,East,93,1.0,3.0,91,0.00,,,0.00,weatherlink.com 1.10,2013-02-10 04:45:00,